| time (UTC) | temp F | wind direction | speed knots | gust knots | rain 1hr in | rain 24hr in | rain mn in | humidity % | barometer mb |
| 20260905212138 | 0 | 0.0 | 0.0 | 0.00 | 0.00 | 0.00 | 1014.7 | ||
| 20260905211633 | 0 | 0.0 | 0.0 | 0.00 | 0.00 | 0.00 | 1014.8 | ||
| 20260905211128 | 0 | 0.0 | 0.0 | 0.00 | 0.00 | 0.00 | 1014.8 | ||
| 20260905210625 | 99 | 307 | 2.6 | 4.3 | 0.00 | 0.00 | 0.00 | 77 | 1014.8 |
| 20260905210119 | 99 | 307 | 2.6 | 4.3 | 0.00 | 0.00 | 0.00 | 77 | 1014.9 |
| 20260905205619 | 99 | 307 | 2.6 | 4.3 | 0.00 | 0.00 | 0.00 | 77 | 1015.1 |
| 20260905205118 | 99 | 307 | 2.6 | 4.3 | 0.00 | 0.00 | 0.00 | 77 | 1015.1 |
| 20260905204612 | 99 | 307 | 2.6 | 4.3 | 0.00 | 0.00 | 0.00 | 77 | 1015.3 |
| 20260905204108 | 99 | 307 | 2.6 | 4.3 | 0.00 | 0.00 | 0.00 | 77 | 1015.1 |
| 20260905203602 | 99 | 307 | 2.6 | 4.3 | 0.00 | 0.00 | 0.00 | 77 | 1015.4 |
| 20260905203057 | 99 | 307 | 2.6 | 4.3 | 0.00 | 0.00 | 0.00 | 77 | 1015.2 |
| 20260905202553 | 99 | 307 | 2.6 | 4.3 | 0.00 | 0.00 | 0.00 | 77 | 1015.5 |
| 20260905202048 | 99 | 307 | 2.6 | 4.3 | 0.00 | 0.00 | 0.00 | 77 | 1015.7 |
| 20260905201544 | 99 | 307 | 2.6 | 4.3 | 0.00 | 0.00 | 0.00 | 77 | 1015.6 |
| 20260905201043 | 99 | 307 | 2.6 | 4.3 | 0.00 | 0.00 | 0.00 | 77 | 1015.6 |
| 20260905200538 | 0 | 0.0 | 0.0 | 0.00 | 0.00 | 0.00 | 1015.6 | ||
| 20260905200038 | 0 | 0.0 | 0.0 | 0.00 | 0.00 | 0.00 | 1016.0 | ||
| 20260905195532 | 0 | 0.0 | 0.0 | 0.00 | 0.00 | 0.00 | 1016.1 | ||
| 20260905195027 | 0 | 0.0 | 0.0 | 0.00 | 0.00 | 0.00 | 1016.3 | ||
| 20260905194522 | 0 | 0.0 | 0.0 | 0.00 | 0.00 | 0.00 | 1016.2 | ||
| 20260905194021 | 0 | 0.0 | 0.0 | 0.00 | 0.00 | 0.00 | 1016.3 | ||
| 20260905193516 | 0 | 0.0 | 0.0 | 0.00 | 0.00 | 0.00 | 1016.3 | ||
| 20260905193011 | 0 | 0.0 | 0.0 | 0.00 | 0.00 | 0.00 | 1016.2 | ||
| 20260905192506 | 0 | 0.0 | 0.0 | 0.00 | 0.00 | 0.00 | 1016.5 | ||
| 20260905192003 | 0 | 0.0 | 0.0 | 0.00 | 0.00 | 0.00 | 1016.4 | ||
| 20260905191501 | 0 | 0.0 | 0.0 | 0.00 | 0.00 | 0.00 | 1016.4 | ||
| 20260905191001 | 0 | 0.0 | 0.0 | 0.00 | 0.00 | 0.00 | 1016.6 | ||
| 20260905190458 | 0 | 0.0 | 0.0 | 0.00 | 0.00 | 0.00 | 1016.7 | ||
| 20260905185957 | 0 | 0.0 | 0.0 | 0.00 | 0.00 | 0.00 | 1016.6 | ||
| 20260905185453 | 0 | 0.0 | 0.0 | 0.00 | 0.00 | 0.00 | 1016.7 | ||
| 20260905184951 | 0 | 0.0 | 0.0 | 0.00 | 0.00 | 0.00 | 1016.8 | ||
| 20260905184446 | 0 | 0.0 | 0.0 | 0.00 | 0.00 | 0.00 | 1016.7 | ||
| 20260905183945 | 0 | 0.0 | 0.0 | 0.00 | 0.00 | 0.00 | 1016.7 | ||
| 20260905183439 | 0 | 0.0 | 0.0 | 0.00 | 0.00 | 0.00 | 1016.9 | ||
| 20260905182935 | 0 | 0.0 | 0.0 | 0.00 | 0.00 | 0.00 | 1017.1 | ||
| 20260905182434 | 0 | 0.0 | 0.0 | 0.00 | 0.00 | 0.00 | 1017.0 | ||
| 20260905181929 | 96 | 268 | 7.8 | 7.8 | 0.00 | 0.00 | 0.00 | 77 | 1017.3 |
| 20260905181429 | 96 | 268 | 7.8 | 7.8 | 0.00 | 0.00 | 0.00 | 77 | 1017.3 |
| 20260905180928 | 96 | 268 | 7.8 | 7.8 | 0.00 | 0.00 | 0.00 | 77 | 1017.4 |
| 20260905180423 | 96 | 268 | 7.8 | 7.8 | 0.00 | 0.00 | 0.00 | 77 | 1017.5 |
| 20260905175918 | 96 | 268 | 7.8 | 7.8 | 0.00 | 0.00 | 0.00 | 77 | 1017.6 |
| 20260905175418 | 96 | 268 | 7.8 | 7.8 | 0.00 | 0.00 | 0.00 | 77 | 1017.5 |
| 20260905174913 | 96 | 268 | 7.8 | 7.8 | 0.00 | 0.00 | 0.00 | 77 | 1017.7 |
| 20260905174409 | 96 | 268 | 7.8 | 7.8 | 0.00 | 0.00 | 0.00 | 77 | 1017.8 |
| 20260905173904 | 96 | 268 | 7.8 | 7.8 | 0.00 | 0.00 | 0.00 | 77 | 1017.5 |
| 20260905173401 | 96 | 268 | 7.8 | 7.8 | 0.00 | 0.00 | 0.00 | 77 | 1017.8 |
| 20260905172855 | 96 | 268 | 7.8 | 7.8 | 0.00 | 0.00 | 0.00 | 77 | 1017.6 |
| 20260905172353 | 95 | 324 | 1.7 | 4.3 | 0.00 | 0.00 | 0.00 | 77 | 1018.0 |
| 20260905171849 | 96 | 45 | 2.6 | 3.5 | 0.00 | 0.00 | 0.00 | 77 | 1017.8 |
| 20260905171346 | 0 | 0.0 | 0.0 | 0.00 | 0.00 | 0.00 | 1018.0 | ||
| 20260905170842 | 0 | 0.0 | 0.0 | 0.00 | 0.00 | 0.00 | 1018.0 | ||
| 20260905170338 | 0 | 0.0 | 0.0 | 0.00 | 0.00 | 0.00 | 1017.7 | ||
| 20260905165837 | 92 | 305 | 5.2 | 5.2 | 0.00 | 0.00 | 0.00 | 77 | 1018.0 |
| 20260905165332 | 92 | 305 | 5.2 | 5.2 | 0.00 | 0.00 | 0.00 | 77 | 1018.2 |
| 20260905164832 | 92 | 305 | 5.2 | 5.2 | 0.00 | 0.00 | 0.00 | 77 | 1018.1 |
| 20260905164327 | 92 | 305 | 5.2 | 5.2 | 0.00 | 0.00 | 0.00 | 77 | 1018.1 |
| 20260905163823 | 92 | 305 | 5.2 | 5.2 | 0.00 | 0.00 | 0.00 | 77 | 1018.2 |
| 20260905163319 | 92 | 305 | 5.2 | 5.2 | 0.00 | 0.00 | 0.00 | 77 | 1018.3 |
| 20260905162815 | 92 | 305 | 5.2 | 5.2 | 0.00 | 0.00 | 0.00 | 77 | 1018.4 |
| 20260905162314 | 92 | 305 | 5.2 | 5.2 | 0.00 | 0.00 | 0.00 | 77 | 1018.4 |
| 20260905161809 | 92 | 305 | 5.2 | 5.2 | 0.00 | 0.00 | 0.00 | 77 | 1018.3 |
| 20260905161308 | 92 | 305 | 5.2 | 5.2 | 0.00 | 0.00 | 0.00 | 77 | 1018.5 |
| 20260905160807 | 92 | 305 | 5.2 | 5.2 | 0.00 | 0.00 | 0.00 | 77 | 1018.4 |
| 20260905160301 | 92 | 305 | 5.2 | 5.2 | 0.00 | 0.00 | 0.00 | 77 | 1018.4 |
| 20260905155756 | 92 | 265 | 0.0 | 2.6 | 0.00 | 0.00 | 0.00 | 77 | 1018.4 |
| 20260905155254 | 92 | 315 | 4.3 | 5.2 | 0.00 | 0.00 | 0.00 | 77 | 1018.6 |
| 20260905154748 | 92 | 315 | 4.3 | 5.2 | 0.00 | 0.00 | 0.00 | 77 | 1018.5 |
| 20260905154244 | 92 | 315 | 4.3 | 5.2 | 0.00 | 0.00 | 0.00 | 77 | 1018.5 |
| 20260905153740 | 89 | 243 | 2.6 | 2.6 | 0.00 | 0.00 | 0.00 | 76 | 1018.5 |
| 20260905153236 | 89 | 243 | 2.6 | 2.6 | 0.00 | 0.00 | 0.00 | 76 | 1018.5 |
| 20260905152731 | 89 | 243 | 2.6 | 2.6 | 0.00 | 0.00 | 0.00 | 76 | 1018.3 |
| 20260905152225 | 89 | 243 | 2.6 | 2.6 | 0.00 | 0.00 | 0.00 | 76 | 1018.3 |
| 20260905151725 | 89 | 243 | 2.6 | 2.6 | 0.00 | 0.00 | 0.00 | 76 | 1018.7 |
| 20260905151221 | 89 | 243 | 2.6 | 2.6 | 0.00 | 0.00 | 0.00 | 76 | 1018.5 |
| 20260905150715 | 89 | 243 | 2.6 | 2.6 | 0.00 | 0.00 | 0.00 | 76 | 1018.3 |
| 20260905150215 | 89 | 243 | 2.6 | 2.6 | 0.00 | 0.00 | 0.00 | 76 | 1018.4 |
| 20260905145712 | 89 | 243 | 2.6 | 2.6 | 0.00 | 0.00 | 0.00 | 76 | 1018.5 |
| 20260905145207 | 89 | 243 | 2.6 | 2.6 | 0.00 | 0.00 | 0.00 | 76 | 1018.4 |
| 20260905144706 | 89 | 278 | 1.7 | 4.3 | 0.00 | 0.00 | 0.00 | 76 | 1018.2 |
| 20260905144206 | 0 | 0.0 | 0.0 | 0.00 | 0.00 | 0.00 | 1018.5 | ||
| 20260905143705 | 0 | 0.0 | 0.0 | 0.00 | 0.00 | 0.00 | 1018.4 | ||
| 20260905143200 | 0 | 0.0 | 0.0 | 0.00 | 0.00 | 0.00 | 1018.4 | ||
| 20260905142659 | 0 | 0.0 | 0.0 | 0.00 | 0.00 | 0.00 | 1018.4 | ||
| 20260905142153 | 0 | 0.0 | 0.0 | 0.00 | 0.00 | 0.00 | 1018.7 | ||
| 20260905141648 | 0 | 0.0 | 0.0 | 0.00 | 0.00 | 0.00 | 1018.4 | ||
| 20260905141144 | 0 | 0.0 | 0.0 | 0.00 | 0.00 | 0.00 | 1018.5 | ||
| 20260905140639 | 0 | 0.0 | 0.0 | 0.00 | 0.00 | 0.00 | 1018.4 | ||
| 20260905140139 | 0 | 0.0 | 0.0 | 0.00 | 0.00 | 0.00 | 1018.3 | ||
| 20260905135634 | 0 | 0.0 | 0.0 | 0.00 | 0.00 | 0.00 | 1018.5 | ||
| 20260905135130 | 0 | 0.0 | 0.0 | 0.00 | 0.00 | 0.00 | 1018.4 | ||
| 20260905134624 | 0 | 0.0 | 0.0 | 0.00 | 0.00 | 0.00 | 1018.5 | ||
| 20260905134123 | 0 | 0.0 | 0.0 | 0.00 | 0.00 | 0.00 | 1018.4 | ||
| 20260905133619 | 0 | 0.0 | 0.0 | 0.00 | 0.00 | 0.00 | 1018.5 | ||
| 20260905133118 | 0 | 0.0 | 0.0 | 0.00 | 0.00 | 0.00 | 1018.3 | ||
| 20260905132618 | 0 | 0.0 | 0.0 | 0.00 | 0.00 | 0.00 | 1018.3 | ||
| 20260905132113 | 0 | 0.0 | 0.0 | 0.00 | 0.00 | 0.00 | 1018.1 | ||
| 20260905131608 | 0 | 0.0 | 0.0 | 0.00 | 0.00 | 0.00 | 1018.3 | ||
| 20260905131103 | 0 | 0.0 | 0.0 | 0.00 | 0.00 | 0.00 | 1018.4 | ||
| 20260905130603 | 0 | 0.0 | 0.0 | 0.00 | 0.00 | 0.00 | 1018.3 | ||
| 20260905130058 | 0 | 0.0 | 0.0 | 0.00 | 0.00 | 0.00 | 1018.1 | ||
| 20260905125557 | 0 | 0.0 | 0.0 | 0.00 | 0.00 | 0.00 | 1018.3 | ||
| 20260905125053 | 0 | 0.0 | 0.0 | 0.00 | 0.00 | 0.00 | 1018.2 | ||
| 20260905124549 | 0 | 0.0 | 0.0 | 0.00 | 0.00 | 0.00 | 1018.1 | ||
| 20260905124045 | 0 | 0.0 | 0.0 | 0.00 | 0.00 | 0.00 | 1018.0 | ||
| 20260905123540 | 0 | 0.0 | 0.0 | 0.00 | 0.00 | 0.00 | 1018.0 | ||
| 20260905123037 | 0 | 0.0 | 0.0 | 0.00 | 0.00 | 0.00 | 1018.0 | ||
| 20260905122536 | 0 | 0.0 | 0.0 | 0.00 | 0.00 | 0.00 | 1017.7 | ||
| 20260905122031 | 0 | 0.0 | 0.0 | 0.00 | 0.00 | 0.00 | 1017.9 | ||
| 20260905121526 | 0 | 0.0 | 0.0 | 0.00 | 0.00 | 0.00 | 1017.8 | ||
| 20260905121021 | 0 | 0.0 | 0.0 | 0.00 | 0.00 | 0.00 | 1017.6 | ||
| 20260905120515 | 0 | 0.0 | 0.0 | 0.00 | 0.00 | 0.00 | 1017.8 | ||
| 20260905120010 | 0 | 0.0 | 0.0 | 0.00 | 0.00 | 0.00 | 1017.7 | ||
| 20260905115509 | 0 | 0.0 | 0.0 | 0.00 | 0.00 | 0.00 | 1017.7 | ||
| 20260905115004 | 0 | 0.0 | 0.0 | 0.00 | 0.00 | 0.00 | 1017.6 | ||
| 20260905114504 | 0 | 0.0 | 0.0 | 0.00 | 0.00 | 0.00 | 1017.7 | ||
| 20260905114003 | 0 | 0.0 | 0.0 | 0.00 | 0.00 | 0.00 | 1017.6 | ||
| 20260905113458 | 0 | 0.0 | 0.0 | 0.00 | 0.00 | 0.00 | 1017.6 | ||
| 20260905112953 | 0 | 0.0 | 0.0 | 0.00 | 0.00 | 0.00 | 1017.7 | ||
| 20260905112448 | 0 | 0.0 | 0.0 | 0.00 | 0.00 | 0.00 | 1017.6 | ||
| 20260905111943 | 0 | 0.0 | 0.0 | 0.00 | 0.00 | 0.00 | 1017.5 | ||
| 20260905111438 | 0 | 0.0 | 0.0 | 0.00 | 0.00 | 0.00 | 1017.5 | ||
| 20260905110938 | 0 | 0.0 | 0.0 | 0.00 | 0.00 | 0.00 | 1017.6 | ||
| 20260905110431 | 0 | 0.0 | 0.0 | 0.00 | 0.00 | 0.00 | 1017.7 | ||
| 20260905105931 | 0 | 0.0 | 0.0 | 0.00 | 0.00 | 0.00 | 1017.7 | ||
| 20260905105426 | 0 | 0.0 | 0.0 | 0.00 | 0.00 | 0.00 | 1017.7 | ||
| 20260905104925 | 0 | 0.0 | 0.0 | 0.00 | 0.00 | 0.00 | 1017.7 | ||
| 20260905104421 | 0 | 0.0 | 0.0 | 0.00 | 0.00 | 0.00 | 1017.6 | ||
| 20260905103915 | 0 | 0.0 | 0.0 | 0.00 | 0.00 | 0.00 | 1017.5 | ||
| 20260905103406 | 0 | 0.0 | 0.0 | 0.00 | 0.00 | 0.00 | 1017.8 | ||
| 20260905102901 | 0 | 0.0 | 0.0 | 0.00 | 0.00 | 0.00 | 1017.7 | ||
| 20260905102357 | 0 | 0.0 | 0.0 | 0.00 | 0.00 | 0.00 | 1017.5 | ||
| 20260905101852 | 0 | 0.0 | 0.0 | 0.00 | 0.00 | 0.00 | 1017.3 | ||
| 20260905101351 | 0 | 0.0 | 0.0 | 0.00 | 0.00 | 0.00 | 1017.5 | ||
| 20260905100846 | 0 | 0.0 | 0.0 | 0.00 | 0.00 | 0.00 | 1017.6 | ||
| 20260905100342 | 0 | 0.0 | 0.0 | 0.00 | 0.00 | 0.00 | 1017.5 | ||
| 20260905095841 | 0 | 0.0 | 0.0 | 0.00 | 0.00 | 0.00 | 1017.6 | ||
| 20260905095340 | 0 | 0.0 | 0.0 | 0.00 | 0.00 | 0.00 | 1017.5 | ||
| 20260905094836 | 0 | 0.0 | 0.0 | 0.00 | 0.00 | 0.00 | 1017.6 | ||
| 20260905094331 | 0 | 0.0 | 0.0 | 0.00 | 0.00 | 0.00 | 1017.6 | ||
| 20260905093830 | 0 | 0.0 | 0.0 | 0.00 | 0.00 | 0.00 | 1017.5 | ||
| 20260905093326 | 0 | 0.0 | 0.0 | 0.00 | 0.00 | 0.00 | 1017.4 | ||
| 20260905092822 | 0 | 0.0 | 0.0 | 0.00 | 0.00 | 0.00 | 1017.7 | ||
| 20260905092321 | 0 | 0.0 | 0.0 | 0.00 | 0.00 | 0.00 | 1017.4 | ||
| 20260905091817 | 0 | 0.0 | 0.0 | 0.00 | 0.00 | 0.00 | 1017.6 | ||
| 20260905091316 | 0 | 0.0 | 0.0 | 0.00 | 0.00 | 0.00 | 1017.6 | ||
| 20260905090815 | 0 | 0.0 | 0.0 | 0.00 | 0.00 | 0.00 | 1017.4 | ||
| 20260905090311 | 0 | 0.0 | 0.0 | 0.00 | 0.00 | 0.00 | 1017.5 | ||
| 20260905085805 | 0 | 0.0 | 0.0 | 0.00 | 0.00 | 0.00 | 1017.3 | ||
| 20260905085306 | 0 | 0.0 | 0.0 | 0.00 | 0.00 | 0.00 | 1017.5 | ||
| 20260905084800 | 0 | 0.0 | 0.0 | 0.00 | 0.00 | 0.00 | 1017.3 | ||
| 20260905084259 | 0 | 0.0 | 0.0 | 0.00 | 0.00 | 0.00 | 1017.3 | ||
| 20260905083754 | 0 | 0.0 | 0.0 | 0.00 | 0.00 | 0.00 | 1017.4 | ||
| 20260905083250 | 0 | 0.0 | 0.0 | 0.00 | 0.00 | 0.00 | 1017.5 | ||
| 20260905082745 | 0 | 0.0 | 0.0 | 0.00 | 0.00 | 0.00 | 1017.2 | ||
| 20260905082242 | 0 | 0.0 | 0.0 | 0.00 | 0.00 | 0.00 | 1017.2 | ||
| 20260905081736 | 0 | 0.0 | 0.0 | 0.00 | 0.00 | 0.00 | 1017.2 | ||
| 20260905081231 | 0 | 0.0 | 0.0 | 0.00 | 0.00 | 0.00 | 1017.4 | ||
| 20260905080731 | 0 | 0.0 | 0.0 | 0.00 | 0.00 | 0.00 | 1017.3 | ||
| 20260905080231 | 0 | 0.0 | 0.0 | 0.00 | 0.00 | 0.00 | 1017.2 | ||
| 20260905075730 | 0 | 0.0 | 0.0 | 0.00 | 0.00 | 0.00 | 1017.3 | ||
| 20260905075229 | 0 | 0.0 | 0.0 | 0.00 | 0.00 | 0.00 | 1017.2 | ||
| 20260905074728 | 0 | 0.0 | 0.0 | 0.00 | 0.00 | 0.00 | 1017.3 | ||
| 20260905074224 | 0 | 0.0 | 0.0 | 0.00 | 0.00 | 0.00 | 1017.4 | ||
| 20260905073719 | 0 | 0.0 | 0.0 | 0.00 | 0.00 | 0.00 | 1017.4 | ||
| 20260905073215 | 0 | 0.0 | 0.0 | 0.00 | 0.00 | 0.00 | 1017.5 | ||
| 20260905072714 | 0 | 0.0 | 0.0 | 0.00 | 0.00 | 0.00 | 1017.4 | ||
| 20260905072209 | 0 | 0.0 | 0.0 | 0.00 | 0.00 | 0.00 | 1017.5 | ||
| 20260905071706 | 0 | 0.0 | 0.0 | 0.00 | 0.00 | 0.00 | 1017.5 | ||
| 20260905071202 | 0 | 0.0 | 0.0 | 0.00 | 0.00 | 0.00 | 1017.7 | ||
| 20260905070656 | 0 | 0.0 | 0.0 | 0.00 | 0.00 | 0.00 | 1017.5 | ||
| 20260905070152 | 0 | 0.0 | 0.0 | 0.00 | 0.00 | 0.00 | 1017.6 | ||
| 20260905065651 | 0 | 0.0 | 0.0 | 0.00 | 0.00 | 0.00 | 1017.5 | ||
| 20260905065145 | 0 | 0.0 | 0.0 | 0.00 | 0.00 | 0.00 | 1017.4 | ||
| 20260905064641 | 0 | 0.0 | 0.0 | 0.00 | 0.00 | 0.00 | 1017.5 | ||
| 20260905064137 | 0 | 0.0 | 0.0 | 0.00 | 0.00 | 0.00 | 1017.6 | ||
| 20260905063635 | 0 | 0.0 | 0.0 | 0.00 | 0.00 | 0.00 | 1017.7 | ||
| 20260905063132 | 0 | 0.0 | 0.0 | 0.00 | 0.00 | 0.00 | 1017.5 | ||
| 20260905062627 | 0 | 0.0 | 0.0 | 0.00 | 0.00 | 0.00 | 1017.8 | ||
| 20260905062126 | 0 | 0.0 | 0.0 | 0.00 | 0.00 | 0.00 | 1017.5 | ||
| 20260905061621 | 0 | 0.0 | 0.0 | 0.00 | 0.00 | 0.00 | 1017.7 | ||
| 20260905061120 | 0 | 0.0 | 0.0 | 0.00 | 0.00 | 0.00 | 1017.5 | ||
| 20260905060616 | 0 | 0.0 | 0.0 | 0.00 | 0.00 | 0.00 | 1017.9 | ||
| 20260905060113 | 0 | 0.0 | 0.0 | 0.00 | 0.00 | 0.00 | 1017.6 | ||
| 20260905055611 | 0 | 0.0 | 0.0 | 0.00 | 0.00 | 0.00 | 1017.6 | ||
| 20260905055106 | 0 | 0.0 | 0.0 | 0.00 | 0.00 | 0.00 | 1017.7 | ||
| 20260905054602 | 0 | 0.0 | 0.0 | 0.00 | 0.00 | 0.00 | 1017.7 | ||
| 20260905054057 | 0 | 0.0 | 0.0 | 0.00 | 0.00 | 0.00 | 1017.8 | ||
| 20260905053556 | 0 | 0.0 | 0.0 | 0.00 | 0.00 | 0.00 | 1017.6 | ||
| 20260905053052 | 0 | 0.0 | 0.0 | 0.00 | 0.00 | 0.00 | 1017.4 | ||
| 20260905052550 | 0 | 0.0 | 0.0 | 0.00 | 0.00 | 0.00 | 1017.6 | ||
| 20260905052040 | 0 | 0.0 | 0.0 | 0.00 | 0.00 | 0.00 | 1017.7 | ||
| 20260905051536 | 0 | 0.0 | 0.0 | 0.00 | 0.00 | 0.00 | 1017.8 | ||
| 20260905051032 | 0 | 0.0 | 0.0 | 0.00 | 0.00 | 0.00 | 1017.7 | ||
| 20260905050528 | 0 | 0.0 | 0.0 | 0.00 | 0.00 | 0.00 | 1017.8 | ||
| 20260905050025 | 0 | 0.0 | 0.0 | 0.00 | 0.00 | 0.00 | 1017.9 | ||
| 20260905045519 | 0 | 0.0 | 0.0 | 0.00 | 0.00 | 0.00 | 1017.7 | ||
| 20260905045015 | 0 | 0.0 | 0.0 | 0.00 | 0.00 | 0.00 | 1017.7 | ||
| 20260905044514 | 0 | 0.0 | 0.0 | 0.00 | 0.00 | 0.00 | 1017.7 | ||
| 20260905044009 | 0 | 0.0 | 0.0 | 0.00 | 0.00 | 0.00 | 1017.8 | ||
| 20260905043508 | 0 | 0.0 | 0.0 | 0.00 | 0.00 | 0.00 | 1017.6 | ||
| 20260905043003 | 0 | 0.0 | 0.0 | 0.00 | 0.00 | 0.00 | 1017.7 | ||
| 20260905042502 | 0 | 0.0 | 0.0 | 0.00 | 0.00 | 0.00 | 1017.8 | ||
| 20260905041952 | 0 | 0.0 | 0.0 | 0.00 | 0.00 | 0.00 | 1017.9 | ||
| 20260905041448 | 0 | 0.0 | 0.0 | 0.00 | 0.00 | 0.00 | 1017.7 | ||
| 20260905040943 | 0 | 0.0 | 0.0 | 0.00 | 0.00 | 0.00 | 1017.7 | ||
| 20260905040442 | 0 | 0.0 | 0.0 | 0.00 | 0.00 | 0.00 | 1017.9 | ||
| 20260905035941 | 0 | 0.0 | 0.0 | 0.00 | 0.00 | 0.00 | 1017.8 | ||
| 20260905035437 | 0 | 0.0 | 0.0 | 0.00 | 0.00 | 0.00 | 1017.8 | ||
| 20260905034934 | 0 | 0.0 | 0.0 | 0.00 | 0.00 | 0.00 | 1017.7 | ||
| 20260905034429 | 0 | 0.0 | 0.0 | 0.00 | 0.00 | 0.00 | 1017.9 | ||
| 20260905033928 | 0 | 0.0 | 0.0 | 0.00 | 0.00 | 0.00 | 1017.7 | ||
| 20260905033423 | 0 | 0.0 | 0.0 | 0.00 | 0.00 | 0.00 | 1017.7 | ||
| 20260905032923 | 0 | 0.0 | 0.0 | 0.00 | 0.00 | 0.00 | 1017.8 | ||
| 20260905032419 | 0 | 0.0 | 0.0 | 0.00 | 0.00 | 0.00 | 1017.7 | ||
| 20260905031913 | 0 | 0.0 | 0.0 | 0.00 | 0.00 | 0.00 | 1017.7 | ||
| 20260905031409 | 0 | 0.0 | 0.0 | 0.00 | 0.00 | 0.00 | 1017.5 | ||
| 20260905030904 | 0 | 0.0 | 0.0 | 0.00 | 0.00 | 0.00 | 1017.8 | ||
| 20260905030400 | 0 | 0.0 | 0.0 | 0.00 | 0.00 | 0.00 | 1017.8 | ||
| 20260905025858 | 0 | 0.0 | 0.0 | 0.00 | 0.00 | 0.00 | 1017.6 | ||
| 20260905025354 | 0 | 0.0 | 0.0 | 0.00 | 0.00 | 0.00 | 1017.6 | ||
| 20260905024851 | 0 | 0.0 | 0.0 | 0.00 | 0.00 | 0.00 | 1017.8 | ||
| 20260905024350 | 0 | 0.0 | 0.0 | 0.00 | 0.00 | 0.00 | 1017.5 | ||
| 20260905023846 | 0 | 0.0 | 0.0 | 0.00 | 0.00 | 0.00 | 1017.6 | ||
| 20260905023341 | 0 | 0.0 | 0.0 | 0.00 | 0.00 | 0.00 | 1017.4 | ||
| 20260905022840 | 0 | 0.0 | 0.0 | 0.00 | 0.00 | 0.00 | 1017.5 | ||
| 20260905022335 | 0 | 0.0 | 0.0 | 0.00 | 0.00 | 0.00 | 1017.4 | ||
| 20260905021830 | 0 | 0.0 | 0.0 | 0.00 | 0.00 | 0.00 | 1017.1 | ||
| 20260905021325 | 0 | 0.0 | 0.0 | 0.00 | 0.00 | 0.00 | 1017.2 | ||
| 20260905020820 | 0 | 0.0 | 0.0 | 0.00 | 0.00 | 0.00 | 1017.2 | ||
| 20260905020315 | 0 | 0.0 | 0.0 | 0.00 | 0.00 | 0.00 | 1017.2 | ||
| 20260905015814 | 0 | 0.0 | 0.0 | 0.00 | 0.00 | 0.00 | 1017.0 | ||
| 20260905015308 | 0 | 0.0 | 0.0 | 0.00 | 0.00 | 0.00 | 1016.9 | ||
| 20260905014807 | 0 | 0.0 | 0.0 | 0.00 | 0.00 | 0.00 | 1016.8 | ||
| 20260905014303 | 0 | 0.0 | 0.0 | 0.00 | 0.00 | 0.00 | 1016.8 | ||
| 20260905013758 | 0 | 0.0 | 0.0 | 0.00 | 0.00 | 0.00 | 1016.6 | ||
| 20260905013254 | 0 | 0.0 | 0.0 | 0.00 | 0.00 | 0.00 | 1016.5 | ||
| 20260905012749 | 0 | 0.0 | 0.0 | 0.00 | 0.00 | 0.00 | 1016.5 | ||
| 20260905012245 | 0 | 0.0 | 0.0 | 0.00 | 0.00 | 0.00 | 1016.3 | ||
| 20260905011742 | 0 | 0.0 | 0.0 | 0.00 | 0.00 | 0.00 | 1016.2 | ||
| 20260905011232 | 0 | 0.0 | 0.0 | 0.00 | 0.00 | 0.00 | 1016.4 | ||
| 20260905010732 | 0 | 0.0 | 0.0 | 0.00 | 0.00 | 0.00 | 1016.3 | ||
| 20260905010227 | 0 | 0.0 | 0.0 | 0.00 | 0.00 | 0.00 | 1016.4 | ||
| 20260905005724 | 0 | 0.0 | 0.0 | 0.00 | 0.00 | 0.00 | 1016.2 | ||
| 20260905005219 | 0 | 0.0 | 0.0 | 0.00 | 0.00 | 0.00 | 1016.3 | ||
| 20260905004713 | 0 | 0.0 | 0.0 | 0.00 | 0.00 | 0.00 | 1016.3 | ||
| 20260905004209 | 0 | 0.0 | 0.0 | 0.00 | 0.00 | 0.00 | 1016.3 | ||
| 20260905003703 | 0 | 0.0 | 0.0 | 0.00 | 0.00 | 0.00 | 1016.1 | ||
| 20260905003159 | 0 | 0.0 | 0.0 | 0.00 | 0.00 | 0.00 | 1016.3 | ||
| 20260905002654 | 0 | 0.0 | 0.0 | 0.00 | 0.00 | 0.00 | 1016.0 | ||
| 20260905002154 | 0 | 0.0 | 0.0 | 0.00 | 0.00 | 0.00 | 1016.3 | ||
| 20260905001649 | 0 | 0.0 | 0.0 | 0.00 | 0.00 | 0.00 | 1016.4 | ||
| 20260905001148 | 0 | 0.0 | 0.0 | 0.00 | 0.00 | 0.00 | 1016.2 | ||
| 20260905000644 | 96 | 195 | 7.8 | 9.6 | 0.00 | 0.00 | 0.00 | 77 | 1016.3 |
| 20260905000140 | 96 | 195 | 7.8 | 9.6 | 0.00 | 0.00 | 0.00 | 77 | 1016.3 |
| 20260904235640 | 96 | 195 | 7.8 | 9.6 | 0.00 | 0.00 | 0.00 | 77 | 1016.1 |
| 20260904235139 | 96 | 195 | 7.8 | 9.6 | 0.00 | 0.00 | 0.00 | 77 | 1016.1 |
| 20260904234634 | 96 | 195 | 7.8 | 9.6 | 0.00 | 0.00 | 0.00 | 77 | 1016.4 |
| 20260904234130 | 96 | 195 | 7.8 | 9.6 | 0.00 | 0.00 | 0.00 | 77 | 1016.1 |
| 20260904233626 | 96 | 195 | 7.8 | 9.6 | 0.00 | 0.00 | 0.00 | 77 | 1016.1 |
| 20260904233121 | 96 | 195 | 7.8 | 9.6 | 0.00 | 0.00 | 0.00 | 77 | 1016.3 |
| 20260904232618 | 96 | 195 | 7.8 | 9.6 | 0.00 | 0.00 | 0.00 | 77 | 1016.1 |
| 20260904232114 | 96 | 195 | 7.8 | 9.6 | 0.00 | 0.00 | 0.00 | 77 | 1016.1 |
| 20260904231609 | 96 | 195 | 7.8 | 9.6 | 0.00 | 0.00 | 0.00 | 77 | 1016.0 |
| 20260904231109 | 96 | 195 | 7.8 | 9.6 | 0.00 | 0.00 | 0.00 | 77 | 1016.1 |
| 20260904230608 | 98 | 142 | 2.6 | 2.6 | 0.00 | 0.00 | 0.00 | 77 | 1015.8 |
| 20260904230104 | 98 | 142 | 2.6 | 2.6 | 0.00 | 0.00 | 0.00 | 77 | 1016.0 |
| 20260904225601 | 98 | 142 | 2.6 | 2.6 | 0.00 | 0.00 | 0.00 | 77 | 1016.0 |
| 20260904225056 | 98 | 142 | 2.6 | 2.6 | 0.00 | 0.00 | 0.00 | 77 | 1016.2 |
| 20260904224551 | 98 | 142 | 2.6 | 2.6 | 0.00 | 0.00 | 0.00 | 77 | 1016.1 |
| 20260904224046 | 98 | 142 | 2.6 | 2.6 | 0.00 | 0.00 | 0.00 | 77 | 1016.2 |
| 20260904223545 | 98 | 142 | 2.6 | 2.6 | 0.00 | 0.00 | 0.00 | 77 | 1015.7 |
| 20260904223041 | 98 | 142 | 2.6 | 2.6 | 0.00 | 0.00 | 0.00 | 77 | 1015.8 |
| 20260904222537 | 98 | 142 | 2.6 | 2.6 | 0.00 | 0.00 | 0.00 | 77 | 1016.1 |
| 20260904222032 | 98 | 142 | 2.6 | 2.6 | 0.00 | 0.00 | 0.00 | 77 | 1015.8 |
| 20260904221526 | 98 | 142 | 2.6 | 2.6 | 0.00 | 0.00 | 0.00 | 77 | 1016.1 |
| 20260904221021 | 98 | 142 | 2.6 | 2.6 | 0.00 | 0.00 | 0.00 | 77 | 1016.0 |
| 20260904220520 | 0 | 0.0 | 0.0 | 0.00 | 0.00 | 0.00 | 1016.3 | ||
| 20260904220017 | 99 | 189 | 3.5 | 6.1 | 0.00 | 0.00 | 0.00 | 77 | 1016.0 |
| 20260904215517 | 99 | 189 | 3.5 | 6.1 | 0.00 | 0.00 | 0.00 | 77 | 1016.2 |
| 20260904215012 | 99 | 189 | 3.5 | 6.1 | 0.00 | 0.00 | 0.00 | 77 | 1016.0 |
| 20260904214507 | 99 | 189 | 3.5 | 6.1 | 0.00 | 0.00 | 0.00 | 77 | 1016.2 |
| 20260904214002 | 99 | 189 | 3.5 | 6.1 | 0.00 | 0.00 | 0.00 | 77 | 1016.3 |
| 20260904213500 | 99 | 189 | 3.5 | 6.1 | 0.00 | 0.00 | 0.00 | 77 | 1016.3 |
| 20260904212957 | 99 | 189 | 3.5 | 6.1 | 0.00 | 0.00 | 0.00 | 77 | 1016.5 |
| 20260904212456 | 99 | 189 | 3.5 | 6.1 | 0.00 | 0.00 | 0.00 | 77 | 1016.5 |